FREGAT R/B, 41033

Orbit data source: Space-Track

FREGAT R/B, 41033 is space debris originally from a launch on Tue, 17 Nov 2015 UTC launched from the Plesetsk Missile And Space Complex (PKMTR). Debris objects in space refer to the collection of defunct objects orbiting the Earth. Examples of debris include non-operational satellites, rocket bodies, and fragments generated from explosions, collisions, or faulty payload assembly.

Loading next visibility...
Identifier
41033, 2015-066B
Orbit
Molniya
Country
Flag of CISCIS
Related business
Manufacturer
Lavochkin
Mission
Spacecraft
Bus & Motor
FREGAT, Unknown motor
Mass
1,000 kg wet, 1,000 kg dry
Launch date (UTC)
2015-11-17 (11 years ago)
Launch vehicle
Unknown
Launch site
Plesetsk Missile And Space Complex (PKMTR)
Object type
Payload
Rocket body
Debris
Shape & HBR
Cyl, 1.7 m
Radar Cross Section
8.354 m², Large (>1 m²)

Expand to show TLE details & history
Last TLE update: 4 days ago

TLE from 4 days ago
0 FREGAT R/B
1 41033U 15066B   26169.45671447  .00000037  00000-0  62865-3 0  9991
2 41033  62.8480 310.2531 7419652 267.6339  14.4260  2.01980228 77942
Epoch: 2026-06-18T10:57Z
TLE epoch observation values (Epoch: 2026-06-18T10:57:40.130Z)
Latitude
-0.00009°
Longitude
-120.94709°
Altitude
5,883.863 km
Speed
7.067 km/s
True Right ascension
20h 40m 40s
True Declination
0° 00' 00"
Sunlit
Object was in daylight at epoch
Visualization orbit readout
Latitude
Unknown
Longitude
Unknown
Altitude
Unknown
Speed
Unknown
Apparent Right ascension
Unknown
Apparent Declination
Unknown
Sunlit
N/A
Visualization observer readout
Local Sidereal Time
21:33:45
Azimuth
Unknown
Elevation
Unknown
Doppler factor
Unknown
Orbital elements
Apogee altitude
39,670.697 km
Perigee altitude
443.011 km
Semi-major axis
26,434.991 km
Eccentricity
0.74197
Inclination
62.848°
RAAN
310.2531°
Arg. of periapsis
267.6339°
True anomaly
92.64831°
Mean anomaly
14.426°
Eccentric anomaly
43.90759°
Mean motion
0.50498 °/min
Orbital period
712.9 mins
BSTAR
0.00062865
Loading maneuver chart data...
Computing Atmospheric mass density...
Loading historical data...
Loading historical data...
Loading historical data...
Loading historical data...
Loading historical data...
Loading historical data...
Loading historical data...
Other satellites on launch #66 in the year 2015 (2015-11-17 UTC)

Documentation

Showing up to 5 results
|